RYR76EK LGRP-EGBB

Flight info

Callsign RYR76EK
Flight time 4h 15m
Altitude 38000
Route VANES UM601 ADESO UN133 RIGRO DCT FSK UL608 DISOR DCT LONTA UL608 DOLEV DCT PODOB DCT BOSNA DCT OKSIG DCT GIMIX DCT ERKIR L608 LIRSU DCT DENUT L610 HEMEL
Aircraft B38M/M-SDE1FGHILORVWXY/HB1

Departure

Time 2026-04-30 17:42
Airport Rhodes International Airport "Diagoras" (LGRP)

Arrival

Time 2026-04-30 21:57
Airport Birmingham Airport (EGBB)
Time Latitude Longitude Altitude Speed Heading
2026-04-30 17:39 36.40022 28.07490 26 ft 21 kts 250°
2026-04-30 17:41 36.40484 28.08439 28 ft 159 kts 70°
2026-04-30 17:42 36.41471 28.11733 763 ft 238 kts 70°
2026-04-30 17:42 36.44649 28.16960 3173 ft 225 kts 49°
2026-04-30 17:43 36.45914 28.20207 3644 ft 217 kts 81°
2026-04-30 17:44 36.46509 28.26190 4317 ft 249 kts 70°
2026-04-30 17:44 36.46480 28.32250 5495 ft 253 kts 137°
2026-04-30 17:46 36.40183 28.27566 5980 ft 359 kts 274°
2026-04-30 17:47 36.40168 28.15997 8856 ft 312 kts 269°
2026-04-30 17:48 36.39911 28.05808 13039 ft 303 kts 267°
2026-04-30 17:48 36.39551 27.97384 14571 ft 337 kts 267°
2026-04-30 17:49 36.39042 27.85521 17314 ft 351 kts 267°
2026-04-30 17:50 36.38533 27.73209 19657 ft 363 kts 272°
2026-04-30 17:51 36.39681 27.63839 21288 ft 370 kts 278°
2026-04-30 17:52 36.40880 27.54260 22868 ft 379 kts 278°
2026-04-30 17:53 36.42918 27.37850 25099 ft 390 kts 278°
2026-04-30 17:54 36.44568 27.24429 26739 ft 397 kts 278°
2026-04-30 17:55 36.46232 27.10764 28270 ft 404 kts 278°
2026-04-30 17:56 36.47920 26.96893 29696 ft 411 kts 278°
2026-04-30 17:57 36.49195 26.86295 30612 ft 416 kts 278°
2026-04-30 17:58 36.50472 26.75540 31396 ft 422 kts 278°
2026-04-30 17:59 36.52166 26.61141 32836 ft 418 kts 278°
2026-04-30 18:00 36.57576 26.49074 34225 ft 423 kts 326°
2026-04-30 18:00 36.65474 26.44074 34987 ft 425 kts 330°
2026-04-30 18:01 36.70796 26.40906 35501 ft 423 kts 330°
2026-04-30 18:02 36.78777 26.36214 36161 ft 423 kts 330°
2026-04-30 18:02 36.86749 26.31522 36803 ft 421 kts 330°
2026-04-30 18:03 36.93789 26.27371 37330 ft 420 kts 329°
2026-04-30 18:04 37.01655 26.22638 37913 ft 417 kts 329°
2026-04-30 18:06 37.22479 26.09918 37978 ft 416 kts 329°
2026-04-30 18:08 37.40715 25.98716 37998 ft 417 kts 329°
2026-04-30 18:10 37.61338 25.85486 38003 ft 411 kts 322°
2026-04-30 18:11 37.78471 25.72087 37993 ft 414 kts 324°
2026-04-30 18:13 37.90752 25.62509 38002 ft 415 kts 323°
2026-04-30 18:14 38.03014 25.52907 38020 ft 415 kts 323°
2026-04-30 18:15 38.17770 25.41302 37996 ft 416 kts 323°
2026-04-30 18:16 38.27604 25.33536 38002 ft 416 kts 323°
2026-04-30 18:17 38.32524 25.29642 38002 ft 416 kts 324°
2026-04-30 18:18 38.39894 25.23796 38004 ft 416 kts 323°
2026-04-30 18:18 38.44809 25.19890 38006 ft 416 kts 323°
2026-04-30 18:19 38.49719 25.15981 38006 ft 416 kts 323°
2026-04-30 18:19 38.54600 25.12089 38008 ft 416 kts 323°
2026-04-30 18:20 38.59513 25.08166 38014 ft 417 kts 323°
2026-04-30 18:20 38.64432 25.04231 38011 ft 417 kts 323°
2026-04-30 18:21 38.69345 25.00293 38025 ft 417 kts 323°
2026-04-30 18:21 38.74265 24.96345 38021 ft 417 kts 323°
2026-04-30 18:22 38.79181 24.92392 38026 ft 417 kts 323°
2026-04-30 18:22 38.86543 24.86462 38021 ft 415 kts 323°
2026-04-30 18:23 38.91439 24.82509 38022 ft 416 kts 323°
2026-04-30 18:23 38.96338 24.78549 38023 ft 416 kts 323°
2026-04-30 18:24 39.03682 24.72597 38029 ft 416 kts 323°
2026-04-30 18:25 39.08576 24.68623 38058 ft 415 kts 323°
2026-04-30 18:25 39.15860 24.62698 38038 ft 413 kts 323°
2026-04-30 18:26 39.23141 24.56759 38039 ft 413 kts 323°
2026-04-30 18:27 39.30420 24.50807 38042 ft 413 kts 323°
2026-04-30 18:28 39.37690 24.44847 38043 ft 412 kts 323°
2026-04-30 18:28 39.44952 24.38879 38047 ft 412 kts 323°
2026-04-30 18:29 39.54646 24.30890 38054 ft 413 kts 323°
2026-04-30 18:30 39.64341 24.22873 38064 ft 413 kts 323°
2026-04-30 18:31 39.71612 24.16842 38059 ft 413 kts 323°
2026-04-30 18:32 39.78844 24.10829 38073 ft 413 kts 323°
2026-04-30 18:33 39.86104 24.04776 38072 ft 412 kts 322°
2026-04-30 18:33 39.93316 23.98749 38068 ft 411 kts 322°
2026-04-30 18:34 40.00529 23.92706 38078 ft 411 kts 322°
2026-04-30 18:35 40.05332 23.88673 38078 ft 411 kts 322°
2026-04-30 18:35 40.10127 23.84639 38102 ft 410 kts 322°
2026-04-30 18:36 40.17296 23.78597 38069 ft 409 kts 322°
2026-04-30 18:37 40.24449 23.72553 38098 ft 407 kts 322°
2026-04-30 18:37 40.29200 23.68530 38090 ft 406 kts 322°
2026-04-30 18:38 40.33948 23.64503 38104 ft 407 kts 322°
2026-04-30 18:38 40.38690 23.60473 38102 ft 406 kts 322°
2026-04-30 18:39 40.43434 23.56435 38109 ft 406 kts 322°
2026-04-30 18:39 40.48178 23.52390 38098 ft 406 kts 322°
2026-04-30 18:40 40.52918 23.48342 38112 ft 407 kts 322°
2026-04-30 18:40 40.57652 23.44291 38159 ft 406 kts 321°
2026-04-30 18:41 40.62379 23.40241 38102 ft 404 kts 321°
2026-04-30 18:41 40.67105 23.36184 38129 ft 407 kts 321°
2026-04-30 18:42 40.71842 23.32110 38128 ft 406 kts 321°
2026-04-30 18:42 40.78904 23.26026 38136 ft 406 kts 321°
2026-04-30 18:45 41.05006 23.03405 38146 ft 409 kts 321°
2026-04-30 18:46 41.09714 22.99198 38122 ft 407 kts 319°
2026-04-30 18:46 41.13941 22.94325 38149 ft 401 kts 308°
2026-04-30 18:46 41.15584 22.91399 38093 ft 392 kts 296°
2026-04-30 18:47 41.16917 22.88267 38251 ft 390 kts 298°
2026-04-30 18:47 41.18562 22.85362 38053 ft 395 kts 310°
2026-04-30 18:47 41.20425 22.82745 38287 ft 390 kts 305°
2026-04-30 18:47 41.22148 22.79942 38148 ft 390 kts 306°
2026-04-30 18:48 41.23875 22.77180 38282 ft 390 kts 306°
2026-04-30 18:48 41.25698 22.74467 38135 ft 396 kts 308°
2026-04-30 18:48 41.27564 22.71774 38198 ft 396 kts 308°
2026-04-30 18:49 41.31295 22.66331 38175 ft 400 kts 308°
2026-04-30 18:49 41.35046 22.60837 38230 ft 401 kts 308°
2026-04-30 18:50 41.38796 22.55331 38201 ft 401 kts 308°
2026-04-30 18:50 41.42530 22.49838 38212 ft 402 kts 308°
2026-04-30 18:51 41.46279 22.44313 38227 ft 402 kts 308°
2026-04-30 18:51 41.50022 22.38786 38217 ft 401 kts 308°
2026-04-30 18:52 41.53122 22.34201 38221 ft 401 kts 308°
2026-04-30 18:52 41.56858 22.28666 38238 ft 401 kts 308°
2026-04-30 18:53 41.60589 22.23127 38241 ft 401 kts 308°
2026-04-30 18:53 41.64317 22.17584 38264 ft 401 kts 308°
2026-04-30 18:54 41.68067 22.11997 38235 ft 405 kts 308°
2026-04-30 18:54 41.71843 22.06361 38254 ft 408 kts 308°
2026-04-30 18:55 41.75636 22.00687 38257 ft 409 kts 308°
2026-04-30 18:55 41.81319 21.92168 38261 ft 409 kts 308°
2026-04-30 18:56 41.86997 21.83631 38260 ft 409 kts 308°
2026-04-30 18:57 41.92673 21.75074 38288 ft 410 kts 309°
2026-04-30 18:57 41.96480 21.69319 38251 ft 412 kts 309°
2026-04-30 18:58 42.02185 21.60674 38264 ft 412 kts 308°
2026-04-30 18:59 42.07889 21.52006 38284 ft 412 kts 308°
2026-04-30 19:00 42.15478 21.40431 38277 ft 412 kts 308°
2026-04-30 19:01 42.22872 21.28704 38271 ft 412 kts 308°
2026-04-30 19:02 42.28450 21.19844 38269 ft 413 kts 308°
2026-04-30 19:03 42.35881 21.08000 38266 ft 413 kts 308°
2026-04-30 19:04 42.43288 20.96148 38260 ft 412 kts 308°
2026-04-30 19:05 42.50684 20.84266 38255 ft 413 kts 308°
2026-04-30 19:06 42.58071 20.72350 38267 ft 413 kts 308°
2026-04-30 19:06 42.63577 20.63437 38265 ft 413 kts 308°
2026-04-30 19:07 42.69102 20.54465 38269 ft 413 kts 308°
2026-04-30 19:08 42.76460 20.42477 38305 ft 412 kts 308°
2026-04-30 19:09 42.81973 20.33465 38334 ft 413 kts 308°
2026-04-30 19:09 42.85649 20.27433 38306 ft 413 kts 308°
2026-04-30 19:10 42.92993 20.15351 38327 ft 414 kts 308°
2026-04-30 19:11 42.98491 20.06274 38330 ft 414 kts 308°
2026-04-30 19:12 43.02151 20.00216 38340 ft 413 kts 308°
2026-04-30 19:12 43.05806 19.94154 38330 ft 413 kts 308°
2026-04-30 19:13 43.13108 19.82005 38332 ft 413 kts 308°
2026-04-30 19:14 43.16754 19.75921 38328 ft 414 kts 308°
2026-04-30 19:14 43.20404 19.69817 38339 ft 414 kts 308°
2026-04-30 19:15 43.24050 19.63706 38334 ft 414 kts 308°
2026-04-30 19:15 43.29512 19.54529 38319 ft 414 kts 308°
2026-04-30 19:16 43.33128 19.48436 38312 ft 415 kts 308°
2026-04-30 19:17 43.38604 19.39186 38306 ft 417 kts 308°
2026-04-30 19:17 43.44084 19.29901 38328 ft 416 kts 308°
2026-04-30 19:18 43.49554 19.20606 38343 ft 417 kts 308°
2026-04-30 19:19 43.53219 19.14413 38328 ft 416 kts 309°
2026-04-30 19:19 43.58878 19.05309 38332 ft 418 kts 309°
2026-04-30 19:20 43.62652 18.99197 38323 ft 419 kts 309°
2026-04-30 19:21 43.68319 18.89995 38306 ft 419 kts 309°
2026-04-30 19:22 43.75881 18.77670 38321 ft 421 kts 309°
2026-04-30 19:23 43.87200 18.59123 38338 ft 422 kts 310°
2026-04-30 19:24 43.92874 18.49778 38313 ft 423 kts 309°
2026-04-30 19:25 44.02310 18.34173 38322 ft 422 kts 309°
2026-04-30 19:26 44.09844 18.21653 38326 ft 422 kts 309°
2026-04-30 19:27 44.15489 18.12237 38333 ft 422 kts 310°
2026-04-30 19:28 44.21103 18.02840 38326 ft 423 kts 310°
2026-04-30 19:29 44.28608 17.90230 38336 ft 422 kts 310°
2026-04-30 19:30 44.36103 17.77590 38339 ft 422 kts 310°
2026-04-30 19:31 44.43814 17.65205 38351 ft 422 kts 311°
2026-04-30 19:31 44.49594 17.55889 38333 ft 422 kts 311°
2026-04-30 19:32 44.53444 17.49669 38351 ft 423 kts 311°
2026-04-30 19:32 44.57291 17.43438 38344 ft 423 kts 311°
2026-04-30 19:33 44.61133 17.37202 38344 ft 422 kts 311°
2026-04-30 19:33 44.64973 17.30955 38355 ft 423 kts 311°
2026-04-30 19:34 44.68820 17.24684 38341 ft 425 kts 311°
2026-04-30 19:35 44.74594 17.15244 38356 ft 424 kts 311°
2026-04-30 19:35 44.78435 17.08946 38353 ft 424 kts 311°
2026-04-30 19:36 44.82275 17.02640 38341 ft 424 kts 311°
2026-04-30 19:36 44.87679 16.92768 38364 ft 425 kts 308°
2026-04-30 19:37 44.91260 16.86141 38370 ft 424 kts 308°
2026-04-30 19:37 44.94240 16.80622 38342 ft 425 kts 308°
2026-04-30 19:38 44.98404 16.72894 38340 ft 426 kts 308°
2026-04-30 19:38 45.01984 16.66233 38322 ft 426 kts 308°
2026-04-30 19:39 45.05558 16.59566 38363 ft 426 kts 308°
2026-04-30 19:39 45.08553 16.53969 38354 ft 425 kts 308°
2026-04-30 19:40 45.12121 16.47285 38355 ft 426 kts 308°
2026-04-30 19:40 45.15665 16.40632 38354 ft 426 kts 308°
2026-04-30 19:41 45.19226 16.33932 38352 ft 426 kts 309°
2026-04-30 19:41 45.22785 16.27219 38357 ft 426 kts 308°
2026-04-30 19:42 45.26343 16.20491 38365 ft 426 kts 308°
2026-04-30 19:42 45.29897 16.13756 38365 ft 426 kts 308°
2026-04-30 19:43 45.33447 16.07010 38369 ft 426 kts 308°
2026-04-30 19:44 45.38766 15.96877 38366 ft 427 kts 308°
2026-04-30 19:44 45.42305 15.90113 38370 ft 426 kts 308°
2026-04-30 19:45 45.45841 15.83339 38371 ft 426 kts 308°
2026-04-30 19:45 45.49377 15.76549 38372 ft 428 kts 308°
2026-04-30 19:46 45.52922 15.69727 38363 ft 428 kts 308°
2026-04-30 19:46 45.56465 15.62890 38356 ft 429 kts 308°
2026-04-30 19:47 45.60005 15.56045 38371 ft 429 kts 308°
2026-04-30 19:47 45.63538 15.49193 38364 ft 428 kts 308°
2026-04-30 19:48 45.67068 15.42334 38364 ft 429 kts 308°
2026-04-30 19:48 45.70571 15.35510 38382 ft 428 kts 308°
2026-04-30 19:49 45.74093 15.28631 38390 ft 428 kts 308°
2026-04-30 19:49 45.79369 15.18297 38379 ft 428 kts 308°
2026-04-30 19:50 45.82880 15.11398 38355 ft 428 kts 308°
2026-04-30 19:50 45.86393 15.04478 38377 ft 430 kts 308°
2026-04-30 19:51 45.89906 14.97541 38377 ft 430 kts 308°
2026-04-30 19:51 45.93420 14.90586 38365 ft 430 kts 308°
2026-04-30 19:52 45.96926 14.83629 38359 ft 430 kts 308°
2026-04-30 19:52 46.00427 14.76665 38348 ft 429 kts 308°
2026-04-30 19:53 46.03923 14.69695 38351 ft 431 kts 308°
2026-04-30 19:53 46.07430 14.62684 38376 ft 432 kts 308°
2026-04-30 19:54 46.10932 14.55665 38380 ft 431 kts 308°
2026-04-30 19:54 46.14429 14.48639 38370 ft 431 kts 308°
2026-04-30 19:55 46.17925 14.41599 38375 ft 432 kts 308°
2026-04-30 19:55 46.21398 14.34586 38370 ft 432 kts 308°
2026-04-30 19:56 46.24888 14.27522 38368 ft 432 kts 308°
2026-04-30 19:56 46.28377 14.20442 38360 ft 432 kts 308°
2026-04-30 19:57 46.31863 14.13349 38322 ft 434 kts 309°
2026-04-30 19:57 46.35358 14.06221 38338 ft 435 kts 309°
2026-04-30 19:58 46.38854 13.99076 38348 ft 435 kts 309°
2026-04-30 19:58 46.42345 13.91923 38327 ft 434 kts 309°
2026-04-30 19:59 46.45831 13.84766 38322 ft 435 kts 309°
2026-04-30 20:00 46.51054 13.74008 38318 ft 433 kts 309°
2026-04-30 20:00 46.54856 13.67292 38397 ft 428 kts 315°
2026-04-30 20:01 46.60821 13.57502 38318 ft 433 kts 315°
2026-04-30 20:01 46.64836 13.50924 38284 ft 435 kts 315°
2026-04-30 20:02 46.70854 13.41028 38292 ft 434 kts 315°
2026-04-30 20:03 46.76851 13.31135 38338 ft 436 kts 315°
2026-04-30 20:03 46.80850 13.24516 38344 ft 434 kts 315°
2026-04-30 20:04 46.84856 13.17873 38293 ft 436 kts 316°
2026-04-30 20:05 46.90824 13.07938 38309 ft 435 kts 316°
2026-04-30 20:05 46.96799 12.97958 38296 ft 435 kts 316°
2026-04-30 20:06 47.00768 12.91309 38310 ft 433 kts 316°
2026-04-30 20:06 47.04729 12.84656 38269 ft 432 kts 316°
2026-04-30 20:07 47.08666 12.78028 38342 ft 431 kts 316°
2026-04-30 20:08 47.14609 12.67992 38309 ft 436 kts 316°
2026-04-30 20:08 47.18577 12.61270 38281 ft 435 kts 316°
2026-04-30 20:09 47.22546 12.54530 38301 ft 437 kts 316°
2026-04-30 20:09 47.28480 12.44421 38330 ft 435 kts 316°
2026-04-30 20:10 47.34407 12.34287 38325 ft 435 kts 316°
2026-04-30 20:11 47.40317 12.24142 38306 ft 435 kts 316°
2026-04-30 20:11 47.44248 12.17376 38356 ft 435 kts 316°
2026-04-30 20:12 47.50148 12.07193 38324 ft 435 kts 316°
2026-04-30 20:13 47.53718 11.99941 38243 ft 448 kts 297°
2026-04-30 20:13 47.54512 11.95468 38367 ft 450 kts 285°
2026-04-30 20:13 47.55100 11.90928 38307 ft 452 kts 289°
2026-04-30 20:14 47.56438 11.81892 38396 ft 452 kts 288°
2026-04-30 20:14 47.57729 11.72709 38318 ft 456 kts 288°
2026-04-30 20:15 47.59003 11.63503 38339 ft 456 kts 288°
2026-04-30 20:15 47.60269 11.54297 38339 ft 457 kts 288°
2026-04-30 20:16 47.61530 11.45068 38329 ft 456 kts 288°
2026-04-30 20:16 47.62712 11.35791 38314 ft 456 kts 286°
2026-04-30 20:17 47.63835 11.26530 38314 ft 456 kts 286°
2026-04-30 20:17 47.64954 11.17299 38330 ft 456 kts 286°
2026-04-30 20:18 47.66063 11.08076 38323 ft 456 kts 286°
2026-04-30 20:18 47.67170 10.98810 38314 ft 456 kts 286°
2026-04-30 20:19 47.68270 10.89541 38322 ft 456 kts 286°
2026-04-30 20:19 47.69364 10.80249 38310 ft 457 kts 286°
2026-04-30 20:20 47.70450 10.70961 38312 ft 457 kts 285°
2026-04-30 20:20 47.71529 10.61662 38308 ft 457 kts 285°
2026-04-30 20:21 47.72601 10.52370 38278 ft 457 kts 285°
2026-04-30 20:21 47.73666 10.43074 38298 ft 457 kts 285°
2026-04-30 20:21 47.74446 10.38553 38201 ft 446 kts 299°
2026-04-30 20:22 47.75933 10.34635 38260 ft 427 kts 316°
2026-04-30 20:22 47.77957 10.31517 38439 ft 417 kts 323°
2026-04-30 20:22 47.80112 10.28584 38209 ft 422 kts 324°
2026-04-30 20:23 47.84557 10.22917 38345 ft 421 kts 326°
2026-04-30 20:23 47.89081 10.17322 38283 ft 424 kts 326°
2026-04-30 20:24 47.93647 10.11722 38324 ft 426 kts 326°
2026-04-30 20:24 47.98219 10.06108 38321 ft 425 kts 326°
2026-04-30 20:25 48.05066 9.97678 38317 ft 425 kts 326°
2026-04-30 20:26 48.11885 9.89250 38362 ft 412 kts 326°
2026-04-30 20:26 48.15962 9.84189 38438 ft 345 kts 327°
2026-04-30 20:26 48.17147 9.82719 38364 ft 324 kts 327°
2026-04-30 20:27 48.21196 9.77696 37931 ft 321 kts 327°
2026-04-30 20:27 48.24540 9.73532 38076 ft 304 kts 328°
2026-04-30 20:28 48.27252 9.70158 37531 ft 311 kts 328°
2026-04-30 20:28 48.30704 9.65846 36449 ft 329 kts 327°
2026-04-30 20:30 48.39435 9.54753 36311 ft 326 kts 327°
2026-04-30 20:31 48.49596 9.41724 36286 ft 312 kts 327°
2026-04-30 20:32 48.54438 9.35489 36243 ft 298 kts 327°
2026-04-30 20:32 48.57575 9.31443 35946 ft 298 kts 327°
2026-04-30 20:33 48.59155 9.29402 35738 ft 300 kts 327°
2026-04-30 20:33 48.62458 9.25548 35299 ft 297 kts 343°
2026-04-30 20:33 48.64380 9.24408 35004 ft 297 kts 347°
2026-04-30 20:34 48.68160 9.21943 34894 ft 302 kts 339°
2026-04-30 20:34 48.71939 9.19293 34844 ft 298 kts 342°
2026-04-30 20:35 48.73826 9.18022 34834 ft 296 kts 342°
2026-04-30 20:35 48.75706 9.16764 34802 ft 295 kts 342°
2026-04-30 20:35 48.79463 9.14265 34714 ft 294 kts 342°
2026-04-30 20:36 48.81328 9.13026 34701 ft 292 kts 342°
2026-04-30 20:36 48.83189 9.11789 34648 ft 292 kts 342°
2026-04-30 20:36 48.86918 9.09307 33964 ft 294 kts 342°
2026-04-30 20:37 48.88816 9.08017 33017 ft 305 kts 341°
2026-04-30 20:37 48.90771 9.06661 32373 ft 310 kts 341°
2026-04-30 20:37 48.92723 9.05307 32433 ft 307 kts 341°
2026-04-30 20:38 48.96670 9.02573 32371 ft 318 kts 341°
2026-04-30 20:38 49.00763 8.99734 32330 ft 328 kts 341°
2026-04-30 20:39 49.04984 8.96801 32323 ft 339 kts 341°
2026-04-30 20:39 49.07149 8.95293 32327 ft 345 kts 341°
2026-04-30 20:40 49.13885 8.90597 32329 ft 365 kts 340°
2026-04-30 20:40 49.18594 8.87305 32312 ft 379 kts 340°
2026-04-30 20:41 49.26100 8.83599 32304 ft 380 kts 346°
2026-04-30 20:41 49.31123 8.81125 32342 ft 380 kts 346°
2026-04-30 20:42 49.36155 8.78641 32329 ft 379 kts 346°
2026-04-30 20:43 49.43693 8.74909 32327 ft 379 kts 346°
2026-04-30 20:43 49.48704 8.72422 32345 ft 378 kts 346°
2026-04-30 20:44 49.56234 8.68676 32353 ft 384 kts 346°
2026-04-30 20:44 49.61408 8.66094 32431 ft 398 kts 346°
2026-04-30 20:45 49.66735 8.63431 32470 ft 413 kts 346°
2026-04-30 20:45 49.72177 8.60110 32419 ft 436 kts 328°
2026-04-30 20:46 49.78892 8.50565 33228 ft 441 kts 321°
2026-04-30 20:46 49.81139 8.47339 33563 ft 441 kts 321°
2026-04-30 20:47 49.85097 8.40033 34123 ft 451 kts 297°
2026-04-30 20:47 49.86173 8.35454 34391 ft 455 kts 291°
2026-04-30 20:48 49.88206 8.26120 34774 ft 458 kts 291°
2026-04-30 20:48 49.89203 8.21425 34982 ft 459 kts 291°
2026-04-30 20:48 49.90194 8.16709 35185 ft 460 kts 291°
2026-04-30 20:48 49.91182 8.11986 35336 ft 461 kts 291°
2026-04-30 20:49 49.93155 8.02507 35341 ft 460 kts 290°
2026-04-30 20:50 49.95129 7.87944 35362 ft 465 kts 280°
2026-04-30 20:50 49.95959 7.78009 35345 ft 464 kts 279°
2026-04-30 20:51 49.96749 7.68060 35340 ft 463 kts 279°
2026-04-30 20:51 49.97909 7.53185 35336 ft 462 kts 278°
2026-04-30 20:52 49.98671 7.43261 35322 ft 462 kts 278°
2026-04-30 20:53 49.99799 7.28368 35360 ft 464 kts 278°
2026-04-30 20:53 50.00167 7.23461 35638 ft 463 kts 278°
2026-04-30 20:53 50.00537 7.18492 35862 ft 463 kts 278°
2026-04-30 20:54 50.01269 7.08567 36349 ft 462 kts 278°
2026-04-30 20:54 50.01631 7.03616 36598 ft 461 kts 278°
2026-04-30 20:54 50.01992 6.98664 36817 ft 461 kts 278°
2026-04-30 20:55 50.03336 6.89037 37215 ft 452 kts 299°
2026-04-30 20:55 50.04837 6.84761 37403 ft 451 kts 300°
2026-04-30 20:55 50.06321 6.80434 37442 ft 454 kts 300°
2026-04-30 20:56 50.09343 6.71786 37812 ft 453 kts 300°
2026-04-30 20:56 50.10861 6.67487 37999 ft 453 kts 301°
2026-04-30 20:56 50.13890 6.58913 38314 ft 451 kts 300°
2026-04-30 20:57 50.15402 6.54623 38311 ft 452 kts 300°
2026-04-30 20:57 50.18425 6.46074 38289 ft 449 kts 303°
2026-04-30 20:58 50.23381 6.33663 38293 ft 450 kts 303°
2026-04-30 20:58 50.26656 6.25340 38298 ft 450 kts 303°
2026-04-30 20:59 50.31541 6.12863 38295 ft 450 kts 303°
2026-04-30 21:00 50.38059 5.96129 38301 ft 451 kts 302°
2026-04-30 21:01 50.42936 5.83533 38295 ft 450 kts 302°
2026-04-30 21:02 50.47798 5.70918 38295 ft 450 kts 302°
2026-04-30 21:02 50.51033 5.62491 38290 ft 450 kts 302°
2026-04-30 21:03 50.54260 5.54057 38291 ft 450 kts 302°
2026-04-30 21:03 50.57479 5.45615 38289 ft 450 kts 301°
2026-04-30 21:04 50.60693 5.37160 38291 ft 450 kts 301°
2026-04-30 21:04 50.65498 5.24465 38292 ft 450 kts 301°
2026-04-30 21:05 50.68696 5.15985 38288 ft 450 kts 301°
2026-04-30 21:05 50.71888 5.07490 38284 ft 451 kts 301°
2026-04-30 21:06 50.75082 4.98963 38283 ft 451 kts 301°
2026-04-30 21:06 50.78267 4.90431 38280 ft 451 kts 301°
2026-04-30 21:07 50.81451 4.81873 38284 ft 452 kts 301°
2026-04-30 21:07 50.84627 4.73305 38278 ft 451 kts 301°
2026-04-30 21:08 50.87795 4.64737 38285 ft 451 kts 300°
2026-04-30 21:08 50.90934 4.56212 38292 ft 451 kts 300°
2026-04-30 21:09 50.94094 4.47606 38300 ft 453 kts 300°
2026-04-30 21:09 50.97257 4.38960 38293 ft 452 kts 300°
2026-04-30 21:10 51.00404 4.30328 38287 ft 452 kts 300°
2026-04-30 21:10 51.03547 4.21682 38287 ft 453 kts 300°
2026-04-30 21:11 51.06694 4.12992 38282 ft 454 kts 300°
2026-04-30 21:11 51.09832 4.04300 38283 ft 452 kts 299°
2026-04-30 21:12 51.12959 3.95607 38276 ft 452 kts 299°
2026-04-30 21:12 51.16075 3.86923 38259 ft 452 kts 299°
2026-04-30 21:13 51.19194 3.78204 38269 ft 453 kts 299°
2026-04-30 21:13 51.22291 3.69517 38259 ft 449 kts 299°
2026-04-30 21:14 51.24983 3.60533 38263 ft 449 kts 289°
2026-04-30 21:14 51.26424 3.50916 38209 ft 445 kts 270°
2026-04-30 21:15 51.26395 3.45996 38350 ft 442 kts 269°
2026-04-30 21:15 51.26738 3.41105 38073 ft 445 kts 285°
2026-04-30 21:15 51.27638 3.36449 38439 ft 435 kts 284°
2026-04-30 21:15 51.28258 3.31687 38148 ft 439 kts 278°
2026-04-30 21:16 51.28808 3.26932 38408 ft 435 kts 280°
2026-04-30 21:16 51.29404 3.22159 38245 ft 441 kts 279°
2026-04-30 21:16 51.30411 3.14148 38261 ft 444 kts 280°
2026-04-30 21:17 51.31625 3.04430 38255 ft 446 kts 280°
2026-04-30 21:17 51.32830 2.94711 38266 ft 446 kts 279°
2026-04-30 21:18 51.34031 2.84958 38262 ft 447 kts 279°
2026-04-30 21:18 51.35230 2.75179 38252 ft 449 kts 279°
2026-04-30 21:19 51.36443 2.65380 38251 ft 449 kts 279°
2026-04-30 21:19 51.37648 2.55567 38259 ft 450 kts 279°
2026-04-30 21:20 51.38844 2.45751 38248 ft 448 kts 279°
2026-04-30 21:20 51.40022 2.36010 38253 ft 450 kts 279°
2026-04-30 21:21 51.41209 2.26128 38257 ft 453 kts 279°
2026-04-30 21:22 51.42976 2.11274 38234 ft 452 kts 279°
2026-04-30 21:23 51.45373 1.91446 38242 ft 453 kts 279°
2026-04-30 21:23 51.47121 1.76569 38239 ft 453 kts 278°
2026-04-30 21:24 51.48274 1.66619 38239 ft 454 kts 278°
2026-04-30 21:24 51.49412 1.56675 38236 ft 453 kts 278°
2026-04-30 21:25 51.51100 1.41747 38238 ft 454 kts 278°
2026-04-30 21:26 51.52767 1.26830 38234 ft 452 kts 278°
2026-04-30 21:27 51.54413 1.11921 37905 ft 451 kts 278°
2026-04-30 21:27 51.54956 1.06952 37092 ft 453 kts 278°
2026-04-30 21:27 51.55500 1.01960 36447 ft 453 kts 277°
2026-04-30 21:28 51.56568 0.92099 35533 ft 443 kts 277°
2026-04-30 21:28 51.57093 0.87236 35044 ft 440 kts 277°
2026-04-30 21:28 51.58119 0.77649 34044 ft 436 kts 276°
2026-04-30 21:29 51.58629 0.72853 33493 ft 434 kts 276°
2026-04-30 21:29 51.60127 0.58660 32017 ft 426 kts 276°
2026-04-30 21:30 51.61107 0.49278 30986 ft 423 kts 276°
2026-04-30 21:31 51.62544 0.35385 29572 ft 417 kts 276°
2026-04-30 21:31 51.63477 0.26264 28689 ft 410 kts 276°
2026-04-30 21:32 51.64393 0.17285 27818 ft 404 kts 277°
2026-04-30 21:32 51.65189 0.12936 27297 ft 408 kts 292°
2026-04-30 21:32 51.66425 0.08840 26930 ft 404 kts 291°
2026-04-30 21:32 51.67568 0.04724 26553 ft 401 kts 291°
2026-04-30 21:33 51.68706 0.00639 26129 ft 399 kts 291°
2026-04-30 21:33 51.70981 -0.07493 25359 ft 396 kts 291°
2026-04-30 21:33 51.72113 -0.11540 24956 ft 395 kts 291°
2026-04-30 21:34 51.73241 -0.15577 24563 ft 394 kts 291°
2026-04-30 21:34 51.75485 -0.23631 23754 ft 393 kts 291°
2026-04-30 21:34 51.76602 -0.27649 23294 ft 392 kts 291°
2026-04-30 21:35 51.77712 -0.31650 22889 ft 389 kts 291°
2026-04-30 21:35 51.78813 -0.35625 22442 ft 386 kts 291°
2026-04-30 21:35 51.79964 -0.39528 22081 ft 385 kts 299°
2026-04-30 21:35 51.81704 -0.42797 21709 ft 385 kts 321°
2026-04-30 21:36 51.83940 -0.45116 21484 ft 378 kts 329°
2026-04-30 21:36 51.86171 -0.47319 21193 ft 374 kts 328°
2026-04-30 21:37 51.92995 -0.54021 19448 ft 388 kts 328°
2026-04-30 21:37 51.95308 -0.56280 19020 ft 388 kts 328°
2026-04-30 21:37 51.97609 -0.58529 18697 ft 385 kts 328°
2026-04-30 21:37 51.99895 -0.60765 18335 ft 382 kts 328°
2026-04-30 21:38 52.02163 -0.62986 17952 ft 379 kts 328°
2026-04-30 21:38 52.04415 -0.65194 17566 ft 377 kts 328°
2026-04-30 21:38 52.06646 -0.67384 17203 ft 374 kts 328°
2026-04-30 21:38 52.08860 -0.69559 16860 ft 370 kts 328°
2026-04-30 21:39 52.11071 -0.71734 16358 ft 372 kts 328°
2026-04-30 21:39 52.13282 -0.73912 15946 ft 371 kts 328°
2026-04-30 21:39 52.15486 -0.76086 15576 ft 369 kts 328°
2026-04-30 21:39 52.17678 -0.78249 15210 ft 367 kts 328°
2026-04-30 21:40 52.19860 -0.80407 14826 ft 366 kts 328°
2026-04-30 21:40 52.22032 -0.82556 14474 ft 364 kts 328°
2026-04-30 21:40 52.24028 -0.85043 14052 ft 362 kts 309°
2026-04-30 21:40 52.25247 -0.88555 13574 ft 354 kts 283°
2026-04-30 21:41 52.25744 -0.92439 13276 ft 347 kts 278°
2026-04-30 21:41 52.26254 -0.96258 12979 ft 343 kts 279°
2026-04-30 21:41 52.26771 -1.00045 12635 ft 340 kts 279°
2026-04-30 21:41 52.27285 -1.03804 12274 ft 338 kts 279°
2026-04-30 21:42 52.27796 -1.07539 11928 ft 336 kts 279°
2026-04-30 21:42 52.28295 -1.11203 11589 ft 334 kts 279°
2026-04-30 21:42 52.28796 -1.14885 11251 ft 332 kts 279°
2026-04-30 21:42 52.29294 -1.18558 10916 ft 330 kts 279°
2026-04-30 21:43 52.29788 -1.22207 10573 ft 328 kts 279°
2026-04-30 21:43 52.30278 -1.25833 10260 ft 325 kts 279°
2026-04-30 21:43 52.30759 -1.29404 10096 ft 317 kts 279°
2026-04-30 21:43 52.31230 -1.32893 9838 ft 312 kts 280°
2026-04-30 21:44 52.32000 -1.36218 9440 ft 317 kts 299°
2026-04-30 21:44 52.33268 -1.39161 9094 ft 315 kts 303°
2026-04-30 21:44 52.34512 -1.42090 8795 ft 312 kts 302°
2026-04-30 21:44 52.35732 -1.45014 8462 ft 310 kts 302°
2026-04-30 21:45 52.36934 -1.47927 8134 ft 308 kts 302°
2026-04-30 21:45 52.38121 -1.50824 7801 ft 303 kts 302°
2026-04-30 21:45 52.39280 -1.53662 7475 ft 296 kts 302°
2026-04-30 21:45 52.40412 -1.56438 7155 ft 290 kts 302°
2026-04-30 21:46 52.41516 -1.59152 6845 ft 283 kts 302°
2026-04-30 21:46 52.42597 -1.61809 6532 ft 277 kts 302°
2026-04-30 21:46 52.43651 -1.64404 6228 ft 271 kts 302°
2026-04-30 21:46 52.44683 -1.66944 5934 ft 265 kts 301°
2026-04-30 21:47 52.45683 -1.69408 5706 ft 252 kts 301°
2026-04-30 21:47 52.46629 -1.71738 5463 ft 239 kts 301°
2026-04-30 21:47 52.47530 -1.73962 5168 ft 229 kts 301°
2026-04-30 21:47 52.48379 -1.76054 4921 ft 210 kts 300°
2026-04-30 21:48 52.49157 -1.77972 4639 ft 195 kts 300°
2026-04-30 21:48 52.49878 -1.79752 4411 ft 177 kts 299°
2026-04-30 21:48 52.50514 -1.81318 4301 ft 154 kts 298°
2026-04-30 21:48 52.51099 -1.82773 4156 ft 155 kts 297°
2026-04-30 21:49 52.51704 -1.84293 4210 ft 164 kts 298°
2026-04-30 21:49 52.52349 -1.85905 4237 ft 173 kts 298°
2026-04-30 21:49 52.53016 -1.87568 4186 ft 175 kts 299°
2026-04-30 21:49 52.53688 -1.89241 4084 ft 176 kts 298°
2026-04-30 21:50 52.54361 -1.90916 3954 ft 176 kts 298°
2026-04-30 21:50 52.55033 -1.92590 3821 ft 175 kts 298°
2026-04-30 21:50 52.55703 -1.94261 3675 ft 175 kts 298°
2026-04-30 21:50 52.56493 -1.95796 3522 ft 178 kts 316°
2026-04-30 21:51 52.57571 -1.96809 3291 ft 182 kts 349°
2026-04-30 21:51 52.58810 -1.96592 2783 ft 181 kts 30°
2026-04-30 21:51 52.59728 -1.95319 2358 ft 164 kts 68°
2026-04-30 21:51 52.60081 -1.93731 2498 ft 144 kts 91°
2026-04-30 21:52 52.60018 -1.92133 2610 ft 139 kts 114°
2026-04-30 21:52 52.59581 -1.90774 2595 ft 133 kts 135°
2026-04-30 21:52 52.58904 -1.89809 2562 ft 126 kts 147°
2026-04-30 21:52 52.58180 -1.89006 2535 ft 125 kts 148°
2026-04-30 21:53 52.57457 -1.88210 2528 ft 125 kts 148°
2026-04-30 21:53 52.56730 -1.87406 2524 ft 126 kts 147°
2026-04-30 21:53 52.56003 -1.86600 2507 ft 126 kts 147°
2026-04-30 21:53 52.55275 -1.85791 2398 ft 126 kts 147°
2026-04-30 21:54 52.54553 -1.84986 2267 ft 125 kts 147°
2026-04-30 21:54 52.53833 -1.84185 2126 ft 124 kts 146°
2026-04-30 21:54 52.53121 -1.83392 1969 ft 123 kts 146°
2026-04-30 21:54 52.52418 -1.82610 1810 ft 123 kts 146°
2026-04-30 21:55 52.51701 -1.81812 1651 ft 125 kts 146°
2026-04-30 21:55 52.50976 -1.81006 1477 ft 126 kts 146°
2026-04-30 21:55 52.50245 -1.80195 1307 ft 128 kts 144°
2026-04-30 21:55 52.49501 -1.79367 1150 ft 131 kts 144°
2026-04-30 21:56 52.48741 -1.78523 939 ft 134 kts 144°
2026-04-30 21:56 52.47955 -1.77652 781 ft 138 kts 144°
2026-04-30 21:56 52.47164 -1.76768 536 ft 136 kts 145°
2026-04-30 21:56 52.46379 -1.75892 370 ft 137 kts 146°
2026-04-30 21:57 52.45625 -1.75055 325 ft 106 kts 148°
2026-04-30 21:57 52.45201 -1.74595 331 ft 44 kts 146°
2026-04-30 21:57 52.45021 -1.74395 329 ft 28 kts 146°
2026-04-30 21:57 52.44950 -1.74224 333 ft 16 kts 75°
2026-04-30 21:58 52.44969 -1.74106 332 ft 1 kts 76°
2026-04-30 21:58 52.44971 -1.74089 332 ft 2 kts 76°
2026-04-30 21:58 52.44976 -1.74055 334 ft 4 kts 76°
2026-04-30 21:58 52.44986 -1.73996 332 ft 7 kts 76°
2026-04-30 21:59 52.45008 -1.73906 332 ft 10 kts 44°
2026-04-30 21:59 52.45076 -1.73934 333 ft 13 kts 326°
2026-04-30 21:59 52.45164 -1.74031 332 ft 17 kts 326°
2026-04-30 22:00 52.45326 -1.74085 327 ft 13 kts 86°
2026-04-30 22:00 52.45350 -1.73886 332 ft 11 kts 55°
2026-04-30 22:00 52.45394 -1.73779 329 ft 12 kts 55°
2026-04-30 22:01 52.45442 -1.73664 331 ft 11 kts 56°
2026-04-30 22:01 52.45477 -1.73581 328 ft 6 kts 55°
2026-04-30 22:01 52.45474 -1.73532 331 ft 4 kts 129°
2026-04-30 22:01 52.45445 -1.73495 331 ft 1 kts 145°
2026-04-30 22:02 52.45435 -1.73484 333 ft 0 kts 144°